Time,TemperatureF,DewpointF,PressureIn,WindDirection,WindDirectionDegrees,WindSpeedMPH,WindSpeedGustMPH,Humidity,HourlyPrecipIn,Conditions,Clouds,dailyrainin,SoftwareType,DateUTC
2013-02-12 19:04:00,50.9,33.9,29.99,SW,215,1.0,0.0,52,0.00,,,0.00,WeatherTracker,2013-02-13 00:04:00,
2013-02-12 19:09:00,50.9,31.4,29.98,SW,215,0.0,0.0,47,0.00,,,0.00,WeatherTracker,2013-02-13 00:09:00,
2013-02-12 19:10:00,50.9,31.4,29.98,SW,215,0.0,0.0,47,0.00,,,0.00,WeatherTracker,2013-02-13 00:10:00,
2013-02-12 19:14:00,51.1,32.1,29.97,SW,215,0.0,0.0,48,0.00,,,0.00,WeatherTracker,2013-02-13 00:14:00,
2013-02-12 19:15:00,51.1,32.1,29.97,SW,215,0.0,0.0,48,0.00,,,0.00,WeatherTracker,2013-02-13 00:15:00,
2013-02-12 19:16:00,51.1,31.6,29.97,SW,215,0.0,0.0,47,0.00,,,0.00,WeatherTracker,2013-02-13 00:16:00,
2013-02-12 19:20:00,51.2,32.7,29.97,South,178,2.0,0.0,49,0.00,,,0.00,WeatherTracker,2013-02-13 00:20:00,
2013-02-12 19:21:00,51.0,33.0,29.97,South,170,1.0,0.0,50,0.00,,,0.00,WeatherTracker,2013-02-13 00:21:00,
2013-02-12 19:25:00,50.5,34.9,29.97,South,170,0.0,0.0,55,0.00,,,0.00,WeatherTracker,2013-02-13 00:25:00,
2013-02-12 19:26:00,50.4,34.4,29.97,South,170,0.0,0.0,54,0.00,,,0.00,WeatherTracker,2013-02-13 00:26:00,
2013-02-12 19:27:00,50.3,34.3,29.97,South,170,0.0,0.0,54,0.00,,,0.00,WeatherTracker,2013-02-13 00:27:00,
2013-02-12 19:30:00,50.2,34.2,29.97,South,170,0.0,0.0,54,0.00,,,0.00,WeatherTracker,2013-02-13 00:30:00,
2013-02-12 19:31:00,50.2,33.7,29.97,South,170,1.0,0.0,53,0.00,,,0.00,WeatherTracker,2013-02-13 00:31:00,
2013-02-12 19:32:00,50.1,34.1,29.97,South,170,1.0,0.0,54,0.00,,,0.00,WeatherTracker,2013-02-13 00:32:00,
2013-02-12 19:35:00,50.0,35.8,29.97,South,170,0.0,0.0,58,0.00,,,0.00,WeatherTracker,2013-02-13 00:35:00,
2013-02-12 19:37:00,49.9,36.1,29.97,South,170,0.0,0.0,59,0.00,,,0.00,WeatherTracker,2013-02-13 00:37:00,
2013-02-12 19:38:00,49.9,36.1,29.97,South,170,0.0,0.0,59,0.00,,,0.00,WeatherTracker,2013-02-13 00:38:00,
2013-02-12 19:41:00,49.7,36.0,29.97,South,170,0.0,0.0,59,0.00,,,0.00,WeatherTracker,2013-02-13 00:41:00,
2013-02-12 19:42:00,49.7,35.5,29.97,South,170,0.0,0.0,58,0.00,,,0.00,WeatherTracker,2013-02-13 00:42:00,
2013-02-12 19:43:00,49.7,35.5,29.97,South,170,0.0,0.0,58,0.00,,,0.00,WeatherTracker,2013-02-13 00:43:00,
2013-02-12 19:46:00,49.8,33.8,29.98,South,170,1.0,0.0,54,0.00,,,0.00,WeatherTracker,2013-02-13 00:46:00,
2013-02-12 19:48:00,49.9,33.9,29.97,South,170,1.0,0.0,54,0.00,,,0.00,WeatherTracker,2013-02-13 00:48:00,
2013-02-12 19:49:00,50.0,34.5,29.97,South,170,1.0,0.0,55,0.00,,,0.00,WeatherTracker,2013-02-13 00:49:00,
2013-02-12 19:52:00,50.3,34.3,29.97,South,170,0.0,0.0,54,0.00,,,0.00,WeatherTracker,2013-02-13 00:52:00,
2013-02-12 19:53:00,50.3,33.8,29.97,South,170,0.0,0.0,53,0.00,,,0.00,WeatherTracker,2013-02-13 00:53:00,
2013-02-12 19:54:00,50.4,34.8,29.96,South,170,0.0,0.0,55,0.00,,,0.00,WeatherTracker,2013-02-13 00:54:00,
2013-02-12 19:57:00,50.3,34.8,29.95,South,170,0.0,0.0,55,0.00,,,0.00,WeatherTracker,2013-02-13 00:57:00,
2013-02-12 19:58:00,50.3,34.3,29.95,SSE,165,2.0,0.0,54,0.00,,,0.00,WeatherTracker,2013-02-13 00:58:00,
2013-02-12 19:59:00,50.3,33.8,29.95,SSE,165,2.0,0.0,53,0.00,,,0.00,WeatherTracker,2013-02-13 00:59:00,
2013-02-12 20:00:00,50.3,34.3,29.95,SSE,165,1.0,0.0,54,0.00,,,0.00,WeatherTracker,2013-02-13 01:00:00,
2013-02-12 20:03:00,50.2,34.7,29.94,SSE,163,1.0,0.0,55,0.00,,,0.00,WeatherTracker,2013-02-13 01:03:00,
2013-02-12 20:05:00,50.1,35.0,29.94,ENE,69,2.0,0.0,56,0.00,,,0.00,WeatherTracker,2013-02-13 01:05:00,
2013-02-12 20:06:00,50.0,34.9,29.94,NE,53,2.0,0.0,56,0.00,,,0.00,WeatherTracker,2013-02-13 01:06:00,
2013-02-12 20:08:00,49.7,34.6,29.94,NE,53,2.0,0.0,56,0.00,,,0.00,WeatherTracker,2013-02-13 01:08:00,
2013-02-12 20:09:00,49.7,34.2,29.93,NE,53,0.0,0.0,55,0.00,,,0.00,WeatherTracker,2013-02-13 01:09:00,
2013-02-12 20:11:00,49.6,35.0,29.93,NE,53,1.0,0.0,57,0.00,,,0.00,WeatherTracker,2013-02-13 01:11:00,
2013-02-12 20:12:00,49.5,34.9,29.93,NE,53,1.0,0.0,57,0.00,,,0.00,WeatherTracker,2013-02-13 01:12:00,
2013-02-12 20:13:00,49.5,34.5,29.93,NE,53,1.0,0.0,56,0.00,,,0.00,WeatherTracker,2013-02-13 01:13:00,
2013-02-12 20:14:00,49.6,34.6,29.93,NE,53,0.0,0.0,56,0.00,,,0.00,WeatherTracker,2013-02-13 01:14:00,
2013-02-12 20:17:00,49.6,34.1,29.93,NE,53,1.0,0.0,55,0.00,,,0.00,WeatherTracker,2013-02-13 01:17:00,
2013-02-12 20:18:00,49.6,34.6,29.94,NE,53,0.0,0.0,56,0.00,,,0.00,WeatherTracker,2013-02-13 01:18:00,
2013-02-12 20:19:00,49.6,35.0,29.94,NE,53,0.0,0.0,57,0.00,,,0.00,WeatherTracker,2013-02-13 01:19:00,
2013-02-12 20:22:00,49.7,34.6,29.94,NE,53,0.0,0.0,56,0.00,,,0.00,WeatherTracker,2013-02-13 01:22:00,
2013-02-12 20:24:00,49.7,35.5,29.93,NE,53,2.0,0.0,58,0.00,,,0.00,WeatherTracker,2013-02-13 01:24:00,
2013-02-12 20:25:00,49.6,35.9,29.93,NE,53,2.0,0.0,59,0.00,,,0.00,WeatherTracker,2013-02-13 01:25:00,
2013-02-12 20:28:00,49.4,35.7,29.93,NE,53,1.0,0.0,59,0.00,,,0.00,WeatherTracker,2013-02-13 01:28:00,
2013-02-12 20:30:00,49.3,35.2,29.93,NE,53,1.0,0.0,58,0.00,,,0.00,WeatherTracker,2013-02-13 01:30:00,
2013-02-12 20:31:00,49.2,35.9,29.93,NE,53,0.0,0.0,60,0.00,,,0.00,WeatherTracker,2013-02-13 01:31:00,
2013-02-12 20:33:00,49.1,35.8,29.94,NE,53,0.0,0.0,60,0.00,,,0.00,WeatherTracker,2013-02-13 01:33:00,
2013-02-12 20:35:00,49.0,35.3,29.94,NE,53,1.0,0.0,59,0.00,,,0.00,WeatherTracker,2013-02-13 01:35:00,
2013-02-12 20:36:00,49.0,35.7,29.95,NE,53,1.0,0.0,60,0.00,,,0.00,WeatherTracker,2013-02-13 01:36:00,
2013-02-12 20:38:00,48.8,35.1,29.95,NW,309,1.0,0.0,59,0.00,,,0.00,WeatherTracker,2013-02-13 01:38:00,
2013-02-12 20:40:00,48.8,36.0,29.96,NW,309,2.0,0.0,61,0.00,,,0.00,WeatherTracker,2013-02-13 01:40:00,
2013-02-12 20:41:00,48.8,36.4,29.96,NW,309,2.0,0.0,62,0.00,,,0.00,WeatherTracker,2013-02-13 01:41:00,
2013-02-12 20:44:00,48.7,36.7,29.97,NW,309,1.0,0.0,63,0.00,,,0.00,WeatherTracker,2013-02-13 01:44:00,
2013-02-12 20:46:00,48.6,36.2,29.98,NW,309,0.0,0.0,62,0.00,,,0.00,WeatherTracker,2013-02-13 01:46:00,
2013-02-12 20:47:00,48.6,36.6,29.98,NW,309,0.0,0.0,63,0.00,,,0.00,WeatherTracker,2013-02-13 01:47:00,
2013-02-12 20:49:00,48.6,37.0,29.98,NW,309,0.0,0.0,64,0.00,,,0.00,WeatherTracker,2013-02-13 01:49:00,
2013-02-12 20:51:00,48.5,37.7,29.98,NW,309,0.0,0.0,66,0.00,,,0.00,WeatherTracker,2013-02-13 01:51:00,
2013-02-12 20:53:00,48.5,37.7,29.98,NW,309,0.0,0.0,66,0.00,,,0.00,WeatherTracker,2013-02-13 01:53:00,
2013-02-12 20:54:00,48.4,36.8,29.99,NW,309,0.0,0.0,64,0.00,,,0.00,WeatherTracker,2013-02-13 01:54:00,
2013-02-12 20:57:00,48.4,36.4,29.99,NW,309,1.0,0.0,63,0.00,,,0.00,WeatherTracker,2013-02-13 01:57:00,
2013-02-12 20:59:00,48.6,35.8,29.99,NW,309,1.0,0.0,61,0.00,,,0.00,WeatherTracker,2013-02-13 01:59:00,
2013-02-12 21:00:00,48.6,36.2,29.99,NW,309,1.0,0.0,62,0.00,,,0.00,WeatherTracker,2013-02-13 02:00:00,
2013-02-12 21:03:00,48.7,35.0,29.99,NW,309,0.0,0.0,59,0.00,,,0.00,WeatherTracker,2013-02-13 02:03:00,
2013-02-12 21:06:00,48.9,35.6,29.99,NW,309,1.0,0.0,60,0.00,,,0.00,WeatherTracker,2013-02-13 02:06:00,
2013-02-12 21:09:00,48.9,35.6,29.99,NW,309,1.0,0.0,60,0.00,,,0.00,WeatherTracker,2013-02-13 02:09:00,
2013-02-12 21:12:00,48.9,34.8,29.99,NW,309,1.0,0.0,58,0.00,,,0.00,WeatherTracker,2013-02-13 02:12:00,
2013-02-12 21:14:00,49.1,33.6,29.99,NW,309,1.0,0.0,55,0.00,,,0.00,WeatherTracker,2013-02-13 02:14:00,
2013-02-12 21:17:00,49.3,34.7,30.00,NW,308,1.0,0.0,57,0.00,,,0.00,WeatherTracker,2013-02-13 02:17:00,
2013-02-12 21:18:00,49.4,34.4,30.00,NW,308,1.0,0.0,56,0.00,,,0.00,WeatherTracker,2013-02-13 02:18:00,
2013-02-12 21:19:00,49.5,33.6,30.00,NW,308,0.0,0.0,54,0.00,,,0.00,WeatherTracker,2013-02-13 02:19:00,
2013-02-12 21:20:00,49.6,33.6,30.00,NW,308,0.0,0.0,54,0.00,,,0.00,WeatherTracker,2013-02-13 02:20:00,
2013-02-12 21:22:00,49.7,34.6,29.99,NW,308,0.0,0.0,56,0.00,,,0.00,WeatherTracker,2013-02-13 02:22:00,
2013-02-12 21:24:00,49.7,34.6,29.99,NW,308,0.0,0.0,56,0.00,,,0.00,WeatherTracker,2013-02-13 02:24:00,
2013-02-12 21:25:00,49.7,34.6,29.99,NW,308,0.0,0.0,56,0.00,,,0.00,WeatherTracker,2013-02-13 02:25:00,
2013-02-12 21:28:00,49.5,37.0,29.99,NW,309,1.0,0.0,62,0.00,,,0.00,WeatherTracker,2013-02-13 02:28:00,
2013-02-12 21:29:00,49.4,37.3,29.99,NW,309,0.0,0.0,63,0.00,,,0.00,WeatherTracker,2013-02-13 02:29:00,
2013-02-12 21:30:00,49.4,37.3,29.99,NW,309,0.0,0.0,63,0.00,,,0.00,WeatherTracker,2013-02-13 02:30:00,
2013-02-12 21:31:00,49.3,37.2,29.99,NW,309,0.0,0.0,63,0.00,,,0.00,WeatherTracker,2013-02-13 02:31:00,
2013-02-12 21:33:00,49.1,36.6,29.98,NW,309,1.0,0.0,62,0.00,,,0.00,WeatherTracker,2013-02-13 02:33:00,
2013-02-12 21:36:00,49.0,37.4,29.99,NW,309,0.0,0.0,64,0.00,,,0.00,WeatherTracker,2013-02-13 02:36:00,
2013-02-12 21:37:00,48.9,36.9,29.99,NW,309,0.0,0.0,63,0.00,,,0.00,WeatherTracker,2013-02-13 02:37:00,
2013-02-12 21:38:00,48.9,36.9,29.99,NW,309,0.0,0.0,63,0.00,,,0.00,WeatherTracker,2013-02-13 02:38:00,
2013-02-12 21:41:00,48.9,36.5,29.99,NW,309,0.0,0.0,62,0.00,,,0.00,WeatherTracker,2013-02-13 02:41:00,
2013-02-12 21:42:00,49.0,36.6,29.99,NW,309,0.0,0.0,62,0.00,,,0.00,WeatherTracker,2013-02-13 02:42:00,
2013-02-12 21:44:00,48.9,36.9,30.00,NW,309,0.0,0.0,63,0.00,,,0.00,WeatherTracker,2013-02-13 02:44:00,
2013-02-12 21:46:00,48.9,37.3,30.00,NW,309,1.0,0.0,64,0.00,,,0.00,WeatherTracker,2013-02-13 02:46:00,
2013-02-12 21:47:00,48.9,37.7,30.00,NW,309,1.0,0.0,65,0.00,,,0.00,WeatherTracker,2013-02-13 02:47:00,
2013-02-12 21:48:00,48.9,37.7,30.00,NW,309,0.0,0.0,65,0.00,,,0.00,WeatherTracker,2013-02-13 02:48:00,
2013-02-12 21:49:00,48.8,37.6,30.00,NW,309,1.0,0.0,65,0.00,,,0.00,WeatherTracker,2013-02-13 02:49:00,
2013-02-12 21:52:00,48.8,37.6,29.99,NW,309,0.0,0.0,65,0.00,,,0.00,WeatherTracker,2013-02-13 02:52:00,
2013-02-12 21:53:00,48.9,34.8,30.00,NW,309,0.0,0.0,58,0.00,,,0.00,WeatherTracker,2013-02-13 02:53:00,
2013-02-12 21:55:00,49.1,35.8,30.00,NW,309,0.0,0.0,60,0.00,,,0.00,WeatherTracker,2013-02-13 02:55:00,
2013-02-12 21:57:00,49.1,37.1,30.00,NW,309,0.0,0.0,63,0.00,,,0.00,WeatherTracker,2013-02-13 02:57:00,
2013-02-12 21:58:00,49.1,37.5,30.00,NW,309,0.0,0.0,64,0.00,,,0.00,WeatherTracker,2013-02-13 02:58:00,
2013-02-12 22:01:00,48.9,37.3,30.00,NW,309,0.0,0.0,64,0.00,,,0.00,WeatherTracker,2013-02-13 03:01:00,
2013-02-12 22:02:00,48.8,37.6,30.00,NW,309,0.0,0.0,65,0.00,,,0.00,WeatherTracker,2013-02-13 03:02:00,
2013-02-12 22:03:00,48.8,37.6,30.00,NW,309,0.0,0.0,65,0.00,,,0.00,WeatherTracker,2013-02-13 03:03:00,
2013-02-12 22:04:00,48.8,37.6,30.00,NW,309,0.0,0.0,65,0.00,,,0.00,WeatherTracker,2013-02-13 03:04:00,
2013-02-12 22:07:00,48.7,37.1,30.00,NW,309,0.0,0.0,64,0.00,,,0.00,WeatherTracker,2013-02-13 03:07:00,
2013-02-12 22:08:00,48.7,37.1,30.00,NW,309,0.0,0.0,64,0.00,,,0.00,WeatherTracker,2013-02-13 03:08:00,
2013-02-12 22:09:00,48.7,37.5,30.00,NW,309,0.0,0.0,65,0.00,,,0.00,WeatherTracker,2013-02-13 03:09:00,
2013-02-12 22:12:00,48.6,37.0,30.00,NW,309,0.0,0.0,64,0.00,,,0.00,WeatherTracker,2013-02-13 03:12:00,
2013-02-12 22:13:00,48.6,37.8,30.00,NW,309,0.0,0.0,66,0.00,,,0.00,WeatherTracker,2013-02-13 03:13:00,
2013-02-12 22:15:00,48.6,37.4,30.00,NW,309,0.0,0.0,65,0.00,,,0.00,WeatherTracker,2013-02-13 03:15:00,
2013-02-12 22:17:00,48.6,37.4,29.99,NW,313,1.0,0.0,65,0.00,,,0.00,WeatherTracker,2013-02-13 03:17:00,
2013-02-12 22:18:00,48.5,37.3,29.99,NW,313,2.0,0.0,65,0.00,,,0.00,WeatherTracker,2013-02-13 03:18:00,
2013-02-12 22:19:00,48.5,37.3,29.99,NW,313,0.0,0.0,65,0.00,,,0.00,WeatherTracker,2013-02-13 03:19:00,
2013-02-12 22:20:00,48.5,37.3,29.99,NW,313,0.0,0.0,65,0.00,,,0.00,WeatherTracker,2013-02-13 03:20:00,
2013-02-12 22:22:00,48.6,36.6,30.00,West,275,1.0,0.0,63,0.00,,,0.00,WeatherTracker,2013-02-13 03:22:00,
2013-02-12 22:24:00,48.7,36.3,30.00,West,263,3.0,0.0,62,0.00,,,0.00,WeatherTracker,2013-02-13 03:24:00,
2013-02-12 22:25:00,48.7,36.3,30.00,WSW,254,2.0,0.0,62,0.00,,,0.00,WeatherTracker,2013-02-13 03:25:00,
2013-02-12 22:26:00,48.7,37.1,30.01,WSW,254,0.0,0.0,64,0.00,,,0.00,WeatherTracker,2013-02-13 03:26:00,
2013-02-12 22:28:00,48.7,37.1,30.00,WSW,257,1.0,0.0,64,0.00,,,0.00,WeatherTracker,2013-02-13 03:28:00,
2013-02-12 22:30:00,48.7,37.1,30.01,WSW,257,1.0,0.0,64,0.00,,,0.00,WeatherTracker,2013-02-13 03:30:00,
2013-02-12 22:31:00,48.7,37.9,30.01,WSW,257,2.0,0.0,66,0.00,,,0.00,WeatherTracker,2013-02-13 03:31:00,
2013-02-12 22:33:00,48.7,37.1,30.00,WSW,257,0.0,0.0,64,0.00,,,0.00,WeatherTracker,2013-02-13 03:33:00,
2013-02-12 22:35:00,48.6,38.1,30.00,WSW,257,1.0,0.0,67,0.00,,,0.00,WeatherTracker,2013-02-13 03:35:00,
2013-02-12 22:36:00,48.5,38.8,30.00,WSW,257,0.0,0.0,69,0.00,,,0.00,WeatherTracker,2013-02-13 03:36:00,
2013-02-12 22:38:00,48.3,37.5,30.00,WSW,257,0.0,0.0,66,0.00,,,0.00,WeatherTracker,2013-02-13 03:38:00,
2013-02-12 22:40:00,48.4,36.4,30.01,WSW,257,2.0,0.0,63,0.00,,,0.00,WeatherTracker,2013-02-13 03:40:00,
2013-02-12 22:41:00,48.5,35.7,30.00,WSW,257,0.0,0.0,61,0.00,,,0.00,WeatherTracker,2013-02-13 03:41:00,
2013-02-12 22:43:00,48.6,34.1,30.00,WSW,257,1.0,0.0,57,0.00,,,0.00,WeatherTracker,2013-02-13 03:43:00,
2013-02-12 22:45:00,48.9,33.0,30.00,WSW,257,0.0,0.0,54,0.00,,,0.00,WeatherTracker,2013-02-13 03:45:00,
2013-02-12 22:46:00,49.1,35.0,30.00,WSW,257,0.0,0.0,58,0.00,,,0.00,WeatherTracker,2013-02-13 03:46:00,
2013-02-12 22:47:00,49.2,36.3,30.00,WSW,257,1.0,0.0,61,0.00,,,0.00,WeatherTracker,2013-02-13 03:47:00,
2013-02-12 22:49:00,49.3,33.8,30.00,WSW,257,0.0,0.0,55,0.00,,,0.00,WeatherTracker,2013-02-13 03:49:00,
2013-02-12 22:50:00,49.4,35.2,30.00,WSW,257,0.0,0.0,58,0.00,,,0.00,WeatherTracker,2013-02-13 03:50:00,
2013-02-12 22:51:00,49.5,35.3,30.00,WSW,257,1.0,0.0,58,0.00,,,0.00,WeatherTracker,2013-02-13 03:51:00,
2013-02-12 22:52:00,49.5,35.3,30.00,WSW,257,0.0,0.0,58,0.00,,,0.00,WeatherTracker,2013-02-13 03:52:00,
2013-02-12 22:55:00,49.6,35.0,29.98,NE,43,0.0,0.0,57,0.00,,,0.00,WeatherTracker,2013-02-13 03:55:00,
2013-02-12 22:56:00,49.6,35.4,29.98,East,89,2.0,0.0,58,0.00,,,0.00,WeatherTracker,2013-02-13 03:56:00,
2013-02-12 22:58:00,49.5,35.3,29.98,East,89,0.0,0.0,58,0.00,,,0.00,WeatherTracker,2013-02-13 03:58:00,
2013-02-12 23:00:00,49.6,33.6,29.98,East,89,0.0,0.0,54,0.00,,,0.00,WeatherTracker,2013-02-13 04:00:00,
2013-02-12 23:02:00,49.7,33.3,29.98,East,89,0.0,0.0,53,0.00,,,0.00,WeatherTracker,2013-02-13 04:02:00,
2013-02-12 23:04:00,49.6,34.6,29.98,East,89,1.0,0.0,56,0.00,,,0.00,WeatherTracker,2013-02-13 04:04:00,
2013-02-12 23:06:00,49.6,35.0,29.97,East,88,2.0,0.0,57,0.00,,,0.00,WeatherTracker,2013-02-13 04:06:00,
2013-02-12 23:07:00,49.5,35.8,29.96,NE,49,3.0,0.0,59,0.00,,,0.00,WeatherTracker,2013-02-13 04:07:00,
2013-02-12 23:09:00,49.4,34.8,29.96,NE,40,0.0,0.0,57,0.00,,,0.00,WeatherTracker,2013-02-13 04:09:00,
2013-02-12 23:11:00,49.3,33.8,29.98,WSW,240,3.0,0.0,55,0.00,,,0.00,WeatherTracker,2013-02-13 04:11:00,
2013-02-12 23:12:00,49.3,34.3,29.98,WSW,240,2.0,0.0,56,0.00,,,0.00,WeatherTracker,2013-02-13 04:12:00,
2013-02-12 23:14:00,49.4,33.0,29.97,NW,310,2.0,0.0,53,0.00,,,0.00,WeatherTracker,2013-02-13 04:14:00,
2013-02-12 23:16:00,49.7,30.8,29.96,NW,309,1.0,0.0,48,0.00,,,0.00,WeatherTracker,2013-02-13 04:16:00,
2013-02-12 23:17:00,49.8,30.4,29.96,NW,309,1.0,0.0,47,0.00,,,0.00,WeatherTracker,2013-02-13 04:17:00,
2013-02-12 23:19:00,50.1,34.1,29.95,NW,309,0.0,0.0,54,0.00,,,0.00,WeatherTracker,2013-02-13 04:19:00,
2013-02-12 23:21:00,50.2,31.8,29.96,West,273,3.0,0.0,49,0.00,,,0.00,WeatherTracker,2013-02-13 04:21:00,
2013-02-12 23:22:00,50.2,31.8,29.96,West,269,3.0,0.0,49,0.00,,,0.00,WeatherTracker,2013-02-13 04:22:00,
2013-02-12 23:25:00,50.3,32.9,29.97,West,267,1.0,0.0,51,0.00,,,0.00,WeatherTracker,2013-02-13 04:25:00,
2013-02-12 23:27:00,50.3,33.4,29.97,West,267,0.0,0.0,52,0.00,,,0.00,WeatherTracker,2013-02-13 04:27:00,
2013-02-12 23:28:00,50.3,33.8,29.97,SSE,152,2.0,0.0,53,0.00,,,0.00,WeatherTracker,2013-02-13 04:28:00,
2013-02-12 23:29:00,50.3,33.8,29.97,SSE,152,0.0,0.0,53,0.00,,,0.00,WeatherTracker,2013-02-13 04:29:00,
2013-02-12 23:31:00,50.0,37.1,29.96,SE,136,1.0,0.0,61,0.00,,,0.00,WeatherTracker,2013-02-13 04:31:00,
2013-02-12 23:32:00,49.7,37.6,29.96,SE,136,2.0,0.0,63,0.00,,,0.00,WeatherTracker,2013-02-13 04:32:00,
2013-02-12 23:34:00,49.4,37.3,29.96,SE,136,0.0,0.0,63,0.00,,,0.00,WeatherTracker,2013-02-13 04:34:00,
2013-02-12 23:36:00,49.1,35.8,29.96,SE,136,1.0,0.0,60,0.00,,,0.00,WeatherTracker,2013-02-13 04:36:00,
2013-02-12 23:37:00,49.1,35.0,29.96,SE,136,0.0,0.0,58,0.00,,,0.00,WeatherTracker,2013-02-13 04:37:00,
2013-02-12 23:39:00,49.1,35.4,29.96,SE,136,0.0,0.0,59,0.00,,,0.00,WeatherTracker,2013-02-13 04:39:00,
2013-02-12 23:41:00,49.1,35.4,29.96,SSW,192,3.0,0.0,59,0.00,,,0.00,WeatherTracker,2013-02-13 04:41:00,
2013-02-12 23:42:00,49.0,37.0,29.96,SSW,197,1.0,0.0,63,0.00,,,0.00,WeatherTracker,2013-02-13 04:42:00,
2013-02-12 23:44:00,48.9,37.3,29.95,SSW,197,0.0,0.0,64,0.00,,,0.00,WeatherTracker,2013-02-13 04:44:00,
2013-02-12 23:45:00,48.8,37.2,29.95,SSW,197,0.0,0.0,64,0.00,,,0.00,WeatherTracker,2013-02-13 04:45:00,
2013-02-12 23:46:00,48.7,37.5,29.96,SSW,197,1.0,0.0,65,0.00,,,0.00,WeatherTracker,2013-02-13 04:46:00,
2013-02-12 23:47:00,48.7,37.1,29.96,SSW,197,0.0,0.0,64,0.00,,,0.00,WeatherTracker,2013-02-13 04:47:00,
2013-02-12 23:50:00,48.7,34.6,29.97,SSW,197,0.0,0.0,58,0.00,,,0.00,WeatherTracker,2013-02-13 04:50:00,
2013-02-12 23:51:00,48.8,37.6,29.96,SSW,197,2.0,0.0,65,0.00,,,0.00,WeatherTracker,2013-02-13 04:51:00,
2013-02-12 23:53:00,48.7,37.9,29.96,SSW,197,1.0,0.0,66,0.00,,,0.00,WeatherTracker,2013-02-13 04:53:00,
2013-02-12 23:55:00,48.6,37.4,29.96,SSW,197,0.0,0.0,65,0.00,,,0.00,WeatherTracker,2013-02-13 04:55:00,
2013-02-12 23:56:00,48.6,37.0,29.97,SSW,197,0.0,0.0,64,0.00,,,0.00,WeatherTracker,2013-02-13 04:56:00,
2013-02-12 23:57:00,48.6,35.8,29.97,SSW,197,0.0,0.0,61,0.00,,,0.00,WeatherTracker,2013-02-13 04:57:00,
2013-02-12 23:59:00,48.8,34.3,29.97,SSW,197,0.0,0.0,57,0.00,,,0.00,WeatherTracker,2013-02-13 04:59:00,